Weather History for Rockport, TX

Change the Weather History Date:

Tuesday, July 30, 2013

  Actual Average Record
Temperature  
Mean Temperature 86 °F -  
Max Temperature 91 °F 91 °F 94 °F (1991)
Min Temperature 80 °F 78 °F 64 °F (1978)
Cooling Degree Days 20    
Growing Degree Days 36 (Base 50)    
Moisture  
Dew Point 76 °F    
Average Humidity 77    
Maximum Humidity 89    
Minimum Humidity 61    
Precipitation  
Precipitation 0.00 in - - ()
Sea Level Pressure  
Sea Level Pressure 30.06 in    
Wind  
Wind Speed 11 mph (SSE)    
Max Wind Speed 20 mph    
Max Gust Speed 26 mph    
Visibility 10 miles    
Events      
Averages and records for this station are not official NWS values.
T = Trace of Precipitation, MM = Missing Value Source: NWS Daily Summary

Daily Weather History Graph

Daily Weather History Graph

Search for Another Location

Airport:

Trip Planner

Search our weather history database for the weather conditions in past years. The results will help you decide how hot, cold, wet, or windy it might be!

Date:

Astronomy

Jul. 30, 2013 Rise Set
Actual Time 6:49 AM CDT 8:19 PM CDT
Civil Twilight 6:24 AM CDT 8:44 PM CDT
Nautical Twilight 5:53 AM CDT 9:14 PM CDT
Astronomical Twilight 5:22 AM CDT 9:46 PM CDT
Moon 1:04 AM CDT (7/30) 2:42 PM CDT (7/30)
Length of Visible Light 14h 20m
Length of Day
13h 29m
Last Quarter, 41% of the Moon is Illuminated
Jul 30
Last Quarter
Aug 6
New
Aug 14
First Quarter
Aug 20
Full
Aug 28
Last Quarter

Hourly Weather History & Observations

Time (CDT) Temp. Heat Index Dew Point Humidity Pressure Visibility Wind Dir Wind Speed Gust Speed Precip Events Conditions
12:53 AM 82.9 °F 91.8 °F 77.0 °F 82% 30.06 in 10.0 mi SSE 10.4 mph 17.3 mph N/A   Mostly Cloudy
1:31 AM 82.4 °F 90.9 °F 77.0 °F 84% 30.05 in 10.0 mi SSE 10.4 mph 18.4 mph N/A   Scattered Clouds
1:53 AM 82.0 °F 90.2 °F 77.0 °F 85% 30.05 in 10.0 mi SSE 12.7 mph 19.6 mph N/A   Partly Cloudy
2:53 AM 82.0 °F 90.2 °F 77.0 °F 85% 30.05 in 10.0 mi SSE 10.4 mph 17.3 mph N/A   Partly Cloudy
3:53 AM 82.0 °F 90.2 °F 77.0 °F 85% 30.03 in 10.0 mi SSE 10.4 mph 20.7 mph N/A   Partly Cloudy
4:53 AM 82.0 °F 90.2 °F 77.0 °F 85% 30.05 in 9.0 mi South 10.4 mph 17.3 mph N/A   Clear
5:37 AM 80.6 °F 87.1 °F 77.0 °F 89% 30.06 in 9.0 mi South 5.8 mph - N/A   Mostly Cloudy
5:53 AM 81.0 °F 87.9 °F 77.0 °F 88% 30.07 in 9.0 mi South 5.8 mph - N/A   Mostly Cloudy
6:04 AM 80.6 °F 87.1 °F 77.0 °F 89% 30.06 in 9.0 mi South 6.9 mph - N/A   Mostly Cloudy
6:16 AM 80.6 °F 87.1 °F 77.0 °F 89% 30.07 in 9.0 mi South 5.8 mph - N/A   Scattered Clouds
6:53 AM 81.0 °F 87.9 °F 77.0 °F 88% 30.08 in 8.0 mi South 8.1 mph - N/A   Clear
7:53 AM 82.9 °F 91.8 °F 77.0 °F 82% 30.09 in 8.0 mi South 6.9 mph - N/A   Partly Cloudy
8:53 AM 84.0 °F 93.7 °F 77.0 °F 79% 30.10 in 9.0 mi SSE 8.1 mph - N/A   Partly Cloudy
9:53 AM 87.1 °F 97.3 °F 75.9 °F 69% 30.10 in 10.0 mi SSE 10.4 mph 17.3 mph N/A   Partly Cloudy
10:53 AM 88.0 °F 98.5 °F 75.9 °F 67% 30.10 in 10.0 mi South 9.2 mph - N/A   Partly Cloudy
11:53 AM 88.0 °F 98.5 °F 75.9 °F 67% 30.09 in 9.0 mi SSE 10.4 mph - N/A   Partly Cloudy
12:53 PM 91.0 °F 102.9 °F 75.9 °F 61% 30.08 in 10.0 mi South 9.2 mph 18.4 mph N/A   Partly Cloudy
1:53 PM 90.0 °F 101.3 °F 75.9 °F 63% 30.07 in 10.0 mi SSE 11.5 mph 19.6 mph N/A   Partly Cloudy
2:53 PM 90.0 °F 101.3 °F 75.9 °F 63% 30.06 in 10.0 mi SE 17.3 mph 23.0 mph N/A   Partly Cloudy
3:53 PM 89.1 °F 100.2 °F 75.9 °F 65% 30.04 in 10.0 mi SSE 17.3 mph 23.0 mph N/A   Clear
4:53 PM 90.0 °F 101.3 °F 75.9 °F 63% 30.03 in 10.0 mi SE 19.6 mph 26.5 mph N/A   Clear
5:53 PM 88.0 °F 98.5 °F 75.9 °F 67% 30.02 in 10.0 mi SE 17.3 mph 23.0 mph N/A   Clear
6:53 PM 86.0 °F 96.0 °F 75.9 °F 72% 30.01 in 9.0 mi SE 17.3 mph 24.2 mph N/A   Partly Cloudy
7:53 PM 84.0 °F 92.6 °F 75.9 °F 76% 30.03 in 9.0 mi SSE 16.1 mph 23.0 mph N/A   Clear
8:53 PM 82.9 °F 90.8 °F 75.9 °F 79% 30.03 in 10.0 mi SSE 17.3 mph 23.0 mph N/A   Clear
9:53 PM 82.9 °F 90.8 °F 75.9 °F 79% 30.05 in 10.0 mi SSE 10.4 mph 19.6 mph N/A   Clear
10:53 PM 82.0 °F 88.6 °F 75.0 °F 79% 30.05 in 10.0 mi SSE 12.7 mph 19.6 mph N/A   Clear
11:53 PM 82.0 °F 88.6 °F 75.0 °F 79% 30.07 in 10.0 mi SSE 10.4 mph - N/A   Clear